Track NSS 5 (INTELSAT 803) now! NSS 5 (INTELSAT 803) is classified as:
1 24957U 97053A 21106.10335543 .00000110 00000-0 00000+0 0 9996 2 24957 6.5778 62.0423 0003513 315.2307 274.9179 1.00269791 86303